Regional Weather Roundup
Issued by NWS

Home | Current Version | Previous Version | Text Only | Print | Product List | Glossary Off
Versions: 1 2 3 4 5 6 7 8 9 10 11 12 13 14 15 16 17 18 19 20 21 22 23 24 25 26 27 28 29 30 31 32 33 34 35 36 37 38 39 40 41 42 43 44 45 46 47 48 49 50

729
ASUS44 KJAN 191303
RWRMS

MISSISSIPPI HOURLY WEATHER ROUNDUP
NATIONAL WEATHER SERVICE JACKSON MS
800 AM CDT SAT APR 19 2014

NOTE: "FAIR: INDICATES FEW OR NO CLOUDS BELOW 12,000 FEET WITH NO
SIGNIFICANT WEATHER AND/OR OBSTRUCTIONS TO VISIBILITY.

MSZ001>002-007>008-010>013-018>021-025>028-034>036-191400-
NORTHWEST MISSISSIPPI

CITY           SKY/WX    TMP DP  RH WIND       PRES   REMARKS
CLARKSDALE       N/A     55  55 100 CALM      30.23R
CLEVELAND      FAIR      56  55  96 NW3       30.22R
GREENWOOD      SUNNY     55  52  89 CALM      30.21R
GREENVILLE     SUNNY     57  55  93 CALM      30.21R FOG
GRENADA        FAIR      52  52 100 CALM      30.20R
OLIVE BRANCH   MOSUNNY   55  55 100 CALM      30.21R
OXFORD         FAIR      54  50  87 CALM      30.22R
TUNICA         SUNNY     55  54  94 CALM      30.22S FOG
$$

MSZ003>006-009-014>017-022>024-029>033-037>039-191400-
NORTHEAST MISSISSIPPI

CITY           SKY/WX    TMP DP  RH WIND       PRES   REMARKS
BELMONT        FAIR      55  52  89 N3        30.19R
COLUMBUS AFB   SUNNY     54  54 100 N7        30.17S
CORINTH        FAIR      54  50  87 CALM      30.20R
GOLDN TRIANGLE SUNNY     54  48  82 NW7       30.20R
STARKVILLE     FAIR      52  52 100 N3        30.17S
TUPELO         SUNNY     55  51  86 NE7       30.19R
$$

MSZ040-058-191400-
CENTRAL MISSISSIPPI

CITY           SKY/WX    TMP DP  RH WIND       PRES   REMARKS
JACKSON INTL   SUNNY     54  53  97 CALM      30.20R
JACKSON HAWKNS SUNNY     54  51  90 NW5       30.20R
MERIDIAN KEY   SUNNY     56  54  93 CALM      30.14F
MERIDIAN NAS   SUNNY     54  51  90 W5        30.14F
RAYMOND        FAIR      50  46  87 CALM      30.20R HAZE
VICKSBURG      SUNNY     59  56  89 NE5       30.20R
$$

MSZ059>079-191400-
SOUTH MISSISSIPPI

CITY           SKY/WX    TMP DP  RH WIND       PRES   REMARKS
BROOKHAVEN     FAIR      54  54 100 CALM      30.20R
COLUMBIA       FAIR      54  52  94 MISG      30.17R
HATTIESBURG    SUNNY     55  52  89 NW6       30.16R
MCCOMB         SUNNY     56  51  84 NW6       30.18R
NATCHEZ        SUNNY     54  52  94 CALM      30.18S
PINE BELT      SUNNY     55  48  76 N5        30.16R
$$

MSZ080>082-191400-
COASTAL MISSISSIPPI

CITY           SKY/WX    TMP DP  RH WIND       PRES   REMARKS
BILOXI         SUNNY     58  52  80 N9        30.14R
PASCAGOULA     SUNNY     58  52  80 N8        30.12R
GULFPORT       SUNNY     59  51  75 N7        30.14R
$$



USA.gov is the U.S. government's official web portal to all federal, state and local government web resources and services.